Regional Weather Roundup
Issued by NWS Goodland, KS

Home | Current Version | Previous Version | Graphics & Text | Print | Product List | Glossary On
Versions: 1 2 3 4 5 6 7 8 9 10 11 12 13 14 15 16 17 18 19 20 21 22 23 24 25 26 27 28 29 30 31 32 33 34 35 36 37 38 39 40 41 42 43 44 45 46 47 48 49 50
000
ASUS43 KGLD 272359
RWRGLD

GOODLAND FORECAST AREA HOURLY WEATHER ROUNDUP
NATIONAL WEATHER SERVICE GOODLAND KS
500 PM MST THU NOV 27 2014

...OFFICIAL OBSERVATIONS...

CITY           SKY/WX    TMP DP  RH WIND       PRES   REMARKS
GOODLAND KS    CLOUDY    53  26  35 SW14      30.07R
HILL CITY KS   PTCLDY    42  22  44 SE6       30.10F
IMPERIAL NEB   MOCLDY    49  28  44 S5        30.02F
MCCOOK NEB     PTCLDY    47  25  42 SE7       30.04F
AKRON CO       CLOUDY    45  29  53 W12       30.09R
BURLINGTON CO  CLOUDY    52  25  35 SW7       30.09S
LIMON CO       MOCLDY    44  22  41 CALM      30.15R
$$

...UNOFFICIAL OBSERVATIONS...

CITY           SKY/WX    TMP DP  RH WIND       PRES   REMARKS
COLBY KS       CLEAR     52  32  46 S9        30.06F
NORTON KS      CLEAR     45  19  36 SE9       30.06F
TRENTON NEB      N/A     46  32  58 SE12        N/A
YUMA CO          N/A     47  33  58 CALM        N/A
$$


USA.gov is the U.S. government's official web portal to all federal, state and local government web resources and services.